Zurück zum Katalog

STARLINK-31781

AktivKommunikationVLEO
NORAD 59632·PAYLOAD·🇺🇸 United States

Gestartet May 3, 2024 von Cape Canaveral Space Force Station

Loading…

Nächste Überflüge (nächste 24 Stunden)

TLE

AktuellSource: CelesTrak SupGP

Epoche: Sep 15, 2026, 02:05 UTC

1 59632C 24082B   26258.08729167  .00046128  00000+0  16713-2 0  2582
2 59632  43.0015 136.0843 0001429 278.7419 212.6293 15.27545246    16

Verfolge STARLINK-31781 in Echtzeit mit AllMySat

Download on the App Store